Regional Weather Roundup
Issued by NWS

Home | Current Version | Previous Version | Text Only | Print | Product List | Glossary On
Versions: 1 2 3 4 5 6 7 8 9 10 11 12 13 14 15 16 17 18 19 20 21 22 23 24 25 26 27 28 29 30 31 32 33 34 35 36 37 38 39 40 41 42 43 44 45 46 47 48 49 50
000
ASUS43 KTOP 202108
RWRKS

WEATHER ROUNDUP FOR KANSAS
NATIONAL WEATHER SERVICE GOODLAND KS
400 PM CDT MON OCT 20 2014

NOTE:  "FAIR" INDICATES FEW OR NO CLOUDS BELOW 12,000 FEET WITH NO
SIGNIFICANT WEATHER AND/OR OBSTRUCTIONS TO VISIBILITY.

KSZ001>006-013>018-027>032-041>047-202200-
NORTHWEST KANSAS

CITY           SKY/WX    TMP DP  RH WIND       PRES   REMARKS
GOODLAND       SUNNY     75  41  29 S13G23    30.11F
HAYS           SUNNY     77  45  31 E7        30.06F
HILL CITY      SUNNY     80  39  23 E7        30.07F
RUSSELL        SUNNY     78  45  30 SE5       30.05S
$$

KSZ061>065-074>080-084>089-202200-
SOUTHWEST KANSAS

CITY           SKY/WX    TMP DP  RH WIND       PRES   REMARKS
DODGE CITY     SUNNY     77  41  27 E9G18     30.08F
ELKHART          N/A     75  51  43 E7          N/A
GARDEN CITY    SUNNY     77  39  25 E12       30.08F
GREAT BEND     SUNNY     77  45  31 E9        30.06S
LIBERAL        SUNNY     75  54  46 E16       30.09S
PRATT          SUNNY     77  41  27 E9        30.07S
$$

KSZ066>073-081>083-090>101-202200-
SOUTHEAST KANSAS

CITY           SKY/WX    TMP DP  RH WIND       PRES   REMARKS
CHANUTE        MOSUNNY   79  54  41 VRB3      30.01F
COFFEYVILLE    SUNNY     78  56  46 VRB3      30.01F
HUTCHINSON     SUNNY     80  43  26 E10       30.04F
MEDICINE LODGE   N/A     81  45  28 E12       30.03S
NEWTON         SUNNY     77  46  33 NE7       30.06F
PARSONS        SUNNY     79  52  38 N6        30.03S
WICHITA INTL   SUNNY     81  43  26 NE10      30.02F
WICHITA JABRA  SUNNY     79  44  28 NE6       30.03S
WICHITA MCCONL SUNNY     80  42  25 NE7       30.03S
WINFIELD       SUNNY     80  51  36 VRB7      30.03S
$$

KSZ007>012-019>026-033>040-048>060-102>105-202200-
NORTHEAST KANSAS

CITY           SKY/WX    TMP DP  RH WIND       PRES   REMARKS
CONCORDIA      SUNNY     77  43  29 CALM      30.05F
EMPORIA        SUNNY     77  44  30 N8        30.03S
LAWRENCE       SUNNY     75  46  35 N9        30.03F
MANHATTAN      SUNNY     77  46  33 NE7       30.03F
MARYSVILLE     SUNNY     73  43  33 E3        30.05F
OLATHE IND     SUNNY     73  47  39 N7        30.03F
OLATHE EXE     SUNNY     74  46  36 NE8       30.02F
SALINA         SUNNY     78  46  32 E7        30.04F
TOPEKA BILLARD SUNNY     76  46  34 N9        30.03F
TOPEKA FORBES  SUNNY     75  46  35 NE5       30.04S
$$


USA.gov is the U.S. government's official web portal to all federal, state and local government web resources and services.